[[{"header":{"parameterUnit":"m.s-1","parameterCategory":1,"la1":30.2991,"la2":30.254,"lo1":-89.0895,"lo2":-89.0444,"dy":0.0017,"dx":0.0017,"nx":28,"ny":28,"refTime":"2024-06-15T09:00:00:Z","depth":0,"parameterNumber":2,"parameterNumberName":"U-component_of_WINDS"},"data":[0,0,0,0,0,0,0,0,0,0,0,0,0,0,0,0,0,0,0,0,0,0,0,0,0,0,0,0,0,0,0,0,0,0,0,0,0,0,0,0,0,0,0,0,0,0,0,0,0,0,0,0,0,0,0,0,0,0,-7.4641,-7.4642,0,-7.4748,-7.4749,-7.475,-7.4676,-7.4673,-7.4669,-7.4666,-7.4771,-7.4776,-7.4782,0,0,0,0,0,0,0,0,0,0,0,0,0,-7.4366,-7.4371,-7.4641,-7.4642,-7.4644,-7.4748,-7.4749,-7.4751,-7.4676,-7.4672,-7.4668,-7.4665,-7.4769,-7.4776,-7.4783,0,0,0,0,0,0,0,0,0,0,0,0,0,-7.448,-7.4373,-7.4641,-7.4619,-7.4618,-7.4748,-7.4749,-7.4751,-7.4677,-7.4672,-7.4667,-7.4663,-7.4766,-7.4775,-7.4784,-7.4939,0,0,-7.4811,-7.4815,0,0,0,0,0,0,0,0,-7.4474,-7.449,-7.4621,-7.4621,-7.462,-7.4694,-7.4691,-7.4814,-7.4679,-7.4655,-7.4666,-7.466,-7.4749,-7.4759,-7.479,-7.4943,-7.4948,-7.4812,-7.4817,-7.4821,-7.4823,0,0,0,0,0,0,0,-7.4466,-7.4485,-7.4683,-7.4623,-7.4623,-7.4602,-7.4613,-7.4714,-7.4728,-7.4656,-7.4651,-7.4665,-7.4748,-7.4781,-7.4792,-7.4949,-7.4811,-7.4819,-7.4825,-7.4828,-7.5231,-7.5236,0,0,0,0,0,0,-7.4461,-7.4479,-7.468,-7.4686,-7.4533,-7.4611,-7.4623,-7.4675,-7.4727,-7.473,-7.4669,-7.4661,-7.4769,-7.4781,-7.4795,-7.4976,-7.4821,-7.4829,-7.4834,-7.5225,-7.5232,-7.5238,0,0,0,0,0,0,-7.4455,-7.4479,-7.4675,-7.4582,-7.4605,-7.4621,-7.468,-7.468,-7.4713,-7.4737,-7.4739,-7.4702,-7.4765,-7.4783,-7.4903,-7.4978,-7.4833,-7.4841,-7.5219,-7.5227,-7.5235,-7.5341,0,0,0,0,0,0,-7.4448,-7.4478,-7.4538,-7.4584,-7.461,-7.4784,-7.4685,-7.4685,-7.4729,-7.472,-7.4768,-7.4771,-7.4763,-7.489,-7.4911,-7.4988,-7.4848,-7.5212,-7.5223,-7.5232,-7.533,-7.5351,-7.5369,0,0,0,0,0,-7.4438,-7.4564,-7.4542,-7.4566,-7.4687,-7.4788,-7.4803,-7.4793,-7.4736,-7.4795,-7.481,-7.4769,-7.4968,-7.4903,-7.4927,-7.5007,-7.5207,-7.522,-7.5231,-7.5322,-7.5347,-7.5369,0,0,0,0,0,0,-7.4525,-7.4569,-7.4545,-7.469,-7.4736,-7.4775,-7.485,-7.4821,-7.4883,-7.4871,-7.4854,-7.4866,-7.4991,-7.5011,-7.4938,-7.5157,-7.5078,-7.5095,-7.5138,-7.5163,-7.5182,-7.5172,-7.4855,0,0,0,0,0,-7.4562,-7.4643,-7.4676,-7.48,-7.4825,-7.4834,-7.4878,-7.4866,-7.4912,-7.4931,-7.4954,-7.4999,-7.5071,-7.5119,-7.5187,-7.5334,-7.5341,-7.5401,-7.542,-7.5436,-7.545,-7.5525,-7.5551,-7.5278,-7.5277,-7.5277,0,0,-7.4637,-7.4671,-7.4723,-7.4818,-7.4853,-7.4934,-7.4851,-7.4941,-7.5,-7.4944,-7.5058,-7.5077,-7.5126,-7.5259,-7.5319,-7.528,-7.5528,-7.5452,-7.5464,-7.5469,-7.554,-7.5566,-7.5589,-7.5286,-7.5284,-7.5283,0,0,-7.4815,-7.4851,-7.4956,-7.4992,-7.5046,-7.5051,-7.5076,-7.5121,-7.5131,-7.5246,-7.5204,-7.5274,-7.54,-7.5435,-7.5469,-7.566,-7.5622,-7.5683,-7.5782,-7.5856,-7.5877,-7.5896,-7.5959,-7.5983,-7.5697,-7.5698,-7.5698,0,-7.4901,-7.5023,-7.5014,-7.5106,-7.5148,-7.5103,-7.5207,-7.5243,-7.5315,-7.5343,-7.53,-7.5454,-7.5485,-7.5623,-7.567,-7.5701,-7.5726,-7.5675,-7.5876,-7.5894,-7.5912,-7.5972,-7.5996,-7.5704,-7.5703,-7.5703,-7.5702,0,-7.5124,-7.521,-7.5288,-7.536,-7.5411,-7.5509,-7.5511,-7.5564,-7.5548,-7.5557,-7.5672,-7.5707,-7.578,-7.5813,-7.5798,-7.5949,-7.5922,-7.5878,-7.5797,-7.5944,-7.6,-7.6024,-7.5714,-7.5711,-7.5709,-7.5708,0,0,-7.5357,-7.5423,-7.5451,-7.5481,-7.5537,-7.5602,-7.5697,-7.5769,-7.5812,-7.5864,-7.594,-7.6048,-7.6006,-7.6045,-7.6034,-7.61,-7.6242,-7.6046,-7.6047,-7.6077,-7.6405,-7.6435,-7.6462,-7.622,-7.6224,-7.6228,-7.6399,0,-7.5534,-7.5702,-7.5695,-7.585,-7.5926,-7.5885,-7.5967,-7.6009,-7.602,-7.6085,-7.6096,-7.6171,-7.6113,-7.6135,-7.6198,-7.6212,-7.6307,-7.62,-7.6287,-7.629,-7.6271,-7.6492,-7.6524,-7.6684,-7.6422,-7.6426,-7.6428,0,-7.5762,-7.5822,-7.5985,-7.6027,-7.6058,-7.6133,-7.6196,-7.6261,-7.6306,-7.6309,-7.6353,-7.6331,-7.6424,-7.6345,-7.647,-7.6397,-7.6433,-7.6445,-7.6451,-7.6454,-7.6365,-7.6497,-7.6736,-7.6758,-7.6464,-7.6461,-7.6458,0,-7.591,-7.6032,-7.6143,-7.6172,-7.6225,-7.6277,-7.6301,-7.6342,-7.6385,-7.644,-7.6467,-7.6533,-7.6568,-7.6619,-7.6613,-7.6557,-7.674,-7.6661,-7.6741,-7.6741,-7.6778,-7.6775,-7.7021,-7.6809,-7.6809,-7.6809,-7.6808,0,-7.6105,-7.6205,-7.621,-7.6278,-7.6388,-7.6379,-7.6488,-7.6506,-7.6542,-7.6611,-7.6581,-7.6646,-7.6638,-7.6702,-7.6699,-7.6801,-7.6819,-7.6821,-7.6818,-7.6821,-7.682,-7.684,-7.6827,-7.6815,-7.6814,-7.6812,-7.6811,0,-7.6287,-7.6295,-7.6413,-7.6454,-7.6466,-7.6545,-7.6578,-7.6641,-7.6651,-7.6738,-7.6758,-7.6771,-7.6846,-7.6847,-7.6933,-7.693,-7.7053,-7.704,-7.7038,-7.7033,-7.7112,-7.7102,-7.7375,-7.7409,-7.7181,-7.7183,-7.7185,0,-7.6408,-7.6484,-7.6533,-7.6578,-7.6605,-7.6678,-7.6721,-7.6716,-7.6762,-7.6818,-7.6874,-7.6946,-7.7002,-7.7123,-7.7138,-7.7203,-7.7188,-7.7279,-7.7197,-7.7196,-7.7183,-7.7176,-7.7181,-7.7293,-7.7296,-7.7298,-7.73,0,-7.6621,-7.6621,-7.6686,-7.6753,-7.6806,-7.6858,-7.6905,-7.6943,-7.6942,-7.6995,-7.7072,-7.7116,-7.7203,-7.7273,-7.7335,-7.7356,-7.7327,-7.7326,-7.7347,-7.7348,-7.7342,-7.7341,-7.7076,-7.7319,-7.7317,-7.7315,-7.7314,-7.7314,-7.6773,-7.6837,-7.6881,-7.6953,-7.6989,-7.7034,-7.7094,-7.7112,-7.7176,-7.7246,-7.7239,-7.7323,-7.7363,-7.7444,-7.7471,-7.7535,-7.7502,-7.7534,-7.7541,-7.7548,-7.7554,-7.7336,-7.7547,-7.7546,-7.7546,-7.7545,-7.7545,0,-7.698,-7.7006,-7.7074,-7.7141,-7.7198,-7.7169,-7.7219,-7.7267,-7.7342,-7.7384,-7.744,-7.7526,-7.7593,-7.7615,-7.768,-7.7726,-7.7714,-7.7743,-7.7736,-7.7741,-7.7582,-7.7554,-7.7751,-7.7751,-7.7751,-7.7751,-7.7751,-7.7751,-7.7094,-7.7199,-7.7205,-7.7326,-7.7351,-7.7434,-7.7465,-7.7505,-7.7538,-7.7635,-7.7692,-7.7706,-7.7739,-7.7806,-7.7865,-7.7869,-7.7892,-7.7926,-7.7924,-7.7774,-7.7753,-7.7733,-7.7707,-7.7932,-7.7933,-7.8077,-7.8079,-7.808]},{"header":{"parameterUnit":"m.s-1","parameterCategory":1,"la1":30.2991,"la2":30.254,"lo1":-89.0895,"lo2":-89.0444,"dy":0.0017,"dx":0.0017,"nx":28,"ny":28,"refTime":"2024-06-15T09:00:00:Z","depth":0,"parameterNumber":3,"parameterNumberName":"V-component_of_WINDS"},"data":[0,0,0,0,0,0,0,0,0,0,0,0,0,0,0,0,0,0,0,0,0,0,0,0,0,0,0,0,0,0,0,0,0,0,0,0,0,0,0,0,0,0,0,0,0,0,0,0,0,0,0,0,0,0,0,0,0,0,0.6444,0.6448,0,0.6852,0.6857,0.6862,0.7011,0.7009,0.7008,0.7006,0.7443,0.7456,0.7469,0,0,0,0,0,0,0,0,0,0,0,0,0,0.5813,0.5823,0.6443,0.6448,0.6453,0.6852,0.6857,0.6863,0.7011,0.7009,0.7007,0.7006,0.7439,0.7454,0.747,0,0,0,0,0,0,0,0,0,0,0,0,0,0.6141,0.5827,0.6442,0.6575,0.6591,0.685,0.6857,0.6864,0.7011,0.7009,0.7007,0.7005,0.7434,0.7453,0.7472,0.7635,0,0,0.7531,0.754,0,0,0,0,0,0,0,0,0.6122,0.6164,0.655,0.6566,0.6584,0.6878,0.6795,0.7124,0.7012,0.6852,0.7006,0.7004,0.7258,0.7292,0.7374,0.7656,0.7675,0.7533,0.7545,0.7553,0.7559,0,0,0,0,0,0,0,0.6099,0.6147,0.6606,0.6556,0.6577,0.6621,0.6665,0.6858,0.7063,0.6866,0.6878,0.6923,0.7267,0.7355,0.7385,0.7681,0.7533,0.755,0.7562,0.757,0.8128,0.8131,0,0,0,0,0,0,0.6051,0.6127,0.6593,0.6618,0.6343,0.6634,0.6684,0.6786,0.7061,0.71,0.6924,0.6928,0.7323,0.7362,0.7401,0.7616,0.7553,0.7571,0.7583,0.8125,0.8129,0.8132,0,0,0,0,0,0,0.6037,0.6091,0.6576,0.6376,0.6441,0.6647,0.6761,0.6795,0.6883,0.7105,0.7144,0.6975,0.7322,0.7374,0.7577,0.7633,0.758,0.7598,0.8121,0.8126,0.8131,0.8043,0,0,0,0,0,0,0.6018,0.6085,0.6144,0.6376,0.6451,0.6738,0.6765,0.6805,0.6914,0.6923,0.7163,0.7201,0.7325,0.7547,0.7596,0.7659,0.7613,0.8117,0.8123,0.8129,0.8042,0.8044,0.8046,0,0,0,0,0,0.5995,0.6105,0.6146,0.6201,0.6527,0.674,0.6784,0.6919,0.6917,0.6982,0.7127,0.7193,0.7618,0.7566,0.7623,0.7693,0.8114,0.8122,0.8129,0.8041,0.8044,0.8046,0,0,0,0,0,0,0.5879,0.6138,0.6186,0.6372,0.6533,0.6765,0.685,0.6917,0.7086,0.7088,0.7255,0.7308,0.7499,0.7617,0.7554,0.7871,0.7872,0.789,0.7786,0.779,0.7792,0.7762,0.7629,0,0,0,0,0,0.5874,0.6019,0.624,0.6384,0.6462,0.6641,0.6739,0.683,0.7005,0.7075,0.7234,0.7407,0.7582,0.7692,0.7864,0.806,0.8119,0.8137,0.8139,0.814,0.8155,0.8276,0.8288,0.8156,0.8156,0.8155,0,0,0.5867,0.6027,0.6109,0.6365,0.6499,0.6654,0.6698,0.6857,0.6976,0.7102,0.7302,0.7426,0.7631,0.7833,0.793,0.7937,0.8205,0.8149,0.8147,0.8163,0.8284,0.8297,0.8308,0.816,0.816,0.8159,0,0,0.5934,0.6066,0.6203,0.6337,0.6539,0.6659,0.6692,0.6916,0.7001,0.7204,0.7304,0.7452,0.7745,0.7889,0.8001,0.8129,0.82,0.8181,0.8193,0.8309,0.8319,0.8329,0.8381,0.8397,0.8195,0.8195,0.8194,0,0.5901,0.613,0.6266,0.6421,0.6535,0.6652,0.6797,0.6923,0.7174,0.7253,0.7256,0.7631,0.7777,0.8018,0.8049,0.8134,0.8184,0.8154,0.8305,0.8317,0.8329,0.838,0.8399,0.8191,0.8192,0.8192,0.8192,0,0.6084,0.6242,0.6329,0.6563,0.6687,0.6836,0.7003,0.7113,0.7195,0.7317,0.7528,0.7708,0.7921,0.7985,0.8067,0.824,0.8239,0.8271,0.8277,0.8336,0.8387,0.8408,0.8186,0.8188,0.8189,0.8189,0,0,0.6086,0.6395,0.6426,0.6536,0.6771,0.69,0.7059,0.7262,0.7357,0.7528,0.7671,0.7919,0.7952,0.8079,0.818,0.828,0.8379,0.8303,0.8311,0.8315,0.859,0.8566,0.8585,0.8426,0.843,0.8434,0.8574,0,0.6186,0.6467,0.6598,0.6825,0.6977,0.7094,0.7235,0.7398,0.7518,0.7672,0.7808,0.7983,0.801,0.8089,0.8193,0.8343,0.8437,0.8335,0.8569,0.8576,0.8516,0.8612,0.8586,0.8709,0.8595,0.8598,0.8601,0,0.634,0.6506,0.6746,0.6968,0.7038,0.7159,0.7361,0.7503,0.7695,0.7777,0.792,0.8018,0.8199,0.819,0.8447,0.8375,0.848,0.857,0.8578,0.8608,0.8593,0.8648,0.8751,0.8771,0.8633,0.863,0.8628,0,0.6323,0.6608,0.679,0.6881,0.7143,0.7228,0.7342,0.7531,0.7648,0.7827,0.7906,0.8104,0.8215,0.8371,0.8524,0.8502,0.8769,0.8771,0.8849,0.8845,0.8901,0.8896,0.9026,0.8962,0.8961,0.8961,0.8961,0,0.6423,0.6567,0.6787,0.6899,0.7067,0.722,0.7385,0.751,0.7678,0.7824,0.7939,0.8075,0.8266,0.8429,0.8551,0.875,0.8798,0.8875,0.8906,0.8867,0.8857,0.8939,0.8936,0.8966,0.8965,0.8964,0.8963,0,0.6433,0.6584,0.6792,0.7023,0.7086,0.72,0.7403,0.7521,0.7648,0.7831,0.7884,0.8086,0.8284,0.8451,0.8713,0.8796,0.9004,0.9039,0.8936,0.8954,0.9024,0.9017,0.9214,0.9251,0.9156,0.9157,0.9158,0,0.6487,0.6601,0.6844,0.6947,0.7058,0.7223,0.7342,0.75,0.7621,0.7852,0.7945,0.815,0.8322,0.8636,0.8812,0.9015,0.9059,0.9114,0.9091,0.9049,0.9067,0.9059,0.9075,0.9116,0.9117,0.9117,0.9117,0,0.6571,0.6642,0.6804,0.6997,0.7134,0.7294,0.7459,0.7538,0.7729,0.7861,0.8062,0.8195,0.8463,0.8669,0.8892,0.902,0.9104,0.9123,0.9153,0.9115,0.9053,0.9093,0.8945,0.9118,0.9118,0.9118,0.9118,0.9118,0.6609,0.6717,0.6906,0.7087,0.7226,0.7378,0.7502,0.7645,0.7813,0.8038,0.8124,0.8332,0.8532,0.8839,0.8968,0.914,0.9151,0.9193,0.9204,0.9213,0.921,0.9022,0.9181,0.9181,0.9181,0.9182,0.9182,0,0.6703,0.683,0.6994,0.7219,0.7364,0.7423,0.761,0.7729,0.7908,0.8084,0.8251,0.8488,0.869,0.8882,0.9096,0.9197,0.9242,0.9248,0.9245,0.9275,0.9185,0.9139,0.9209,0.9209,0.9209,0.9209,0.9209,0.9209,0.6768,0.6956,0.705,0.7313,0.7443,0.7643,0.7745,0.789,0.8031,0.8287,0.8453,0.8575,0.8762,0.8991,0.9182,0.9235,0.9311,0.9309,0.9372,0.9285,0.928,0.9275,0.9234,0.9323,0.9323,0.9449,0.945,0.9451]}]]